Location: Bonny Doon Airfield
(37.0704°N, 122.1252°W)
Time: 10:49:15
(UTC-07:00)

Tiangong 2 - Pass Details

Date: 12 October 2017
Orbit: 388 x 391 km, 42.8° (Epoch: 21 October)

Event Time Altitude Azimuth Distance (km) Brightness Sun altitude
Exits shadow 05:20:53 30° 37° (NE) 732 2.8 -23.3°
Drops below altitude 10° 05:22:48 10° 58° (ENE) 1,420 4.8 -22.9°
Sets 05:24:57 0° 65° (ENE) 2,278 6.3 -22.5°
